TimeEDT,TemperatureF,Dew PointF,Humidity,Sea Level PressureIn,VisibilityMPH,Wind Direction,Wind SpeedMPH,Gust SpeedMPH,PrecipitationIn,Events,Conditions,WindDirDegrees,DateUTC
12:15 AM,25.7,20.3,80,30.32,10.0,Calm,Calm,-,N/A,,Clear,0,2013-10-30 04:15:00
12:35 AM,23.9,18.7,80,30.32,10.0,Calm,Calm,-,N/A,,Clear,0,2013-10-30 04:35:00
12:55 AM,25.2,19.9,81,30.31,10.0,Calm,Calm,-,N/A,,Clear,0,2013-10-30 04:55:00
1:15 AM,24.6,19.6,81,30.31,10.0,SW,3.5,-,N/A,,Clear,220,2013-10-30 05:15:00
1:35 AM,25.3,19.6,79,30.30,10.0,Calm,Calm,-,N/A,,Clear,0,2013-10-30 05:35:00
1:55 AM,25.3,20.1,81,30.30,10.0,Calm,Calm,-,N/A,,Clear,0,2013-10-30 05:55:00
2:15 AM,25.3,20.3,81,30.29,10.0,Calm,Calm,-,N/A,,Scattered Clouds,0,2013-10-30 06:15:00
2:35 AM,25.7,20.7,81,30.28,10.0,Calm,Calm,-,N/A,,Scattered Clouds,0,2013-10-30 06:35:00
2:55 AM,26.1,20.8,81,30.27,10.0,Calm,Calm,-,N/A,,Mostly Cloudy,0,2013-10-30 06:55:00
3:15 AM,26.1,20.8,81,30.27,10.0,Calm,Calm,-,N/A,,Mostly Cloudy,0,2013-10-30 07:15:00
3:35 AM,25.7,21.0,82,30.26,10.0,Calm,Calm,-,N/A,,Overcast,0,2013-10-30 07:35:00
3:55 AM,25.9,21.4,83,30.25,10.0,Calm,Calm,-,N/A,,Mostly Cloudy,0,2013-10-30 07:55:00
4:15 AM,26.2,21.2,81,30.26,10.0,Calm,Calm,-,N/A,,Mostly Cloudy,0,2013-10-30 08:15:00
4:35 AM,26.6,21.2,80,30.26,10.0,Calm,Calm,-,N/A,,Overcast,0,2013-10-30 08:35:00
4:55 AM,26.2,21.9,84,30.25,10.0,Calm,Calm,-,N/A,,Mostly Cloudy,0,2013-10-30 08:55:00
5:15 AM,26.8,22.1,83,30.25,10.0,SW,3.5,-,N/A,,Mostly Cloudy,220,2013-10-30 09:15:00
5:35 AM,27.1,22.3,82,30.25,10.0,SSW,4.6,-,N/A,,Overcast,200,2013-10-30 09:35:00
5:55 AM,27.5,22.5,81,30.24,10.0,SSW,4.6,-,N/A,,Mostly Cloudy,210,2013-10-30 09:55:00
6:15 AM,27.5,22.3,81,30.24,10.0,SW,4.6,-,N/A,,Overcast,220,2013-10-30 10:15:00
6:35 AM,27.5,22.6,82,30.24,10.0,SW,4.6,-,N/A,,Mostly Cloudy,220,2013-10-30 10:35:00
6:55 AM,28.0,22.8,81,30.24,10.0,SSW,4.6,-,N/A,,Overcast,210,2013-10-30 10:55:00
7:15 AM,27.9,22.8,81,30.24,10.0,Calm,Calm,-,N/A,,Mostly Cloudy,0,2013-10-30 11:15:00
7:35 AM,28.0,23.0,81,30.24,10.0,Calm,Calm,-,N/A,,Mostly Cloudy,0,2013-10-30 11:35:00
7:55 AM,28.4,23.4,81,30.24,10.0,SW,3.5,-,N/A,,Overcast,220,2013-10-30 11:55:00
8:15 AM,29.3,23.2,78,30.24,10.0,SW,3.5,-,N/A,,Overcast,230,2013-10-30 12:15:00
8:35 AM,29.8,23.7,78,30.25,10.0,SW,3.5,-,N/A,,Overcast,220,2013-10-30 12:35:00
8:55 AM,30.2,23.9,77,30.25,10.0,SSW,3.5,-,N/A,,Overcast,210,2013-10-30 12:55:00
9:15 AM,31.1,25.0,78,30.24,10.0,Calm,Calm,-,N/A,,Overcast,0,2013-10-30 13:15:00
9:35 AM,32.0,23.9,72,30.25,10.0,Calm,Calm,-,N/A,,Overcast,0,2013-10-30 13:35:00
9:55 AM,32.5,24.3,72,30.25,10.0,WSW,3.5,-,N/A,,Mostly Cloudy,240,2013-10-30 13:55:00
10:15 AM,34.7,24.3,66,30.24,10.0,SSW,3.5,-,N/A,,Overcast,210,2013-10-30 14:15:00
10:35 AM,36.0,25.0,64,30.23,10.0,SSW,4.6,-,N/A,,Overcast,200,2013-10-30 14:35:00
10:55 AM,36.9,27.0,67,30.23,10.0,SSW,6.9,-,N/A,,Overcast,210,2013-10-30 14:55:00
11:15 AM,37.4,27.9,68,30.23,10.0,South,4.6,-,N/A,,Overcast,180,2013-10-30 15:15:00
11:35 AM,37.8,27.7,67,30.23,10.0,South,3.5,-,N/A,,Overcast,190,2013-10-30 15:35:00
11:55 AM,38.5,28.0,66,30.22,10.0,SSW,4.6,-,N/A,,Overcast,200,2013-10-30 15:55:00
12:15 PM,38.5,28.2,67,30.22,10.0,SSW,6.9,-,N/A,,Overcast,210,2013-10-30 16:15:00
12:35 PM,38.7,27.7,65,30.21,10.0,SSW,5.8,-,N/A,,Overcast,210,2013-10-30 16:35:00
12:55 PM,39.2,28.0,64,30.20,10.0,SW,6.9,-,N/A,,Overcast,220,2013-10-30 16:55:00
1:15 PM,39.6,27.9,63,30.20,10.0,WSW,6.9,-,N/A,,Overcast,240,2013-10-30 17:15:00
1:35 PM,39.4,28.4,65,30.20,10.0,SW,6.9,-,N/A,,Overcast,220,2013-10-30 17:35:00
1:55 PM,39.2,28.8,66,30.19,10.0,SW,5.8,-,N/A,,Overcast,220,2013-10-30 17:55:00
2:15 PM,39.4,28.2,64,30.18,10.0,SW,4.6,-,N/A,,Overcast,230,2013-10-30 18:15:00
2:35 PM,40.1,28.8,64,30.17,10.0,SSW,3.5,-,N/A,,Mostly Cloudy,210,2013-10-30 18:35:00
2:55 PM,40.8,29.7,64,30.17,10.0,SW,3.5,-,N/A,,Mostly Cloudy,220,2013-10-30 18:55:00
3:15 PM,40.3,29.3,65,30.17,10.0,SSW,4.6,-,N/A,,Overcast,210,2013-10-30 19:15:00
3:35 PM,40.3,29.5,65,30.17,10.0,SSW,3.5,-,N/A,,Overcast,210,2013-10-30 19:35:00
3:55 PM,41.0,29.7,64,30.17,10.0,SSW,4.6,-,N/A,,Overcast,200,2013-10-30 19:55:00
4:15 PM,41.0,29.7,64,30.17,10.0,Calm,Calm,-,N/A,,Overcast,0,2013-10-30 20:15:00
4:35 PM,41.0,29.3,63,30.17,10.0,SW,3.5,-,N/A,,Overcast,220,2013-10-30 20:35:00
4:55 PM,41.0,29.5,64,30.17,10.0,SSW,3.5,-,N/A,,Overcast,200,2013-10-30 20:55:00
5:15 PM,40.6,29.3,64,30.17,10.0,SSW,3.5,-,N/A,,Overcast,200,2013-10-30 21:15:00
5:35 PM,39.4,28.9,66,30.17,10.0,Calm,Calm,-,N/A,,Overcast,0,2013-10-30 21:35:00
5:55 PM,39.2,29.5,68,30.17,10.0,Calm,Calm,-,N/A,,Overcast,0,2013-10-30 21:55:00
6:15 PM,39.2,29.3,68,30.17,10.0,South,3.5,-,N/A,,Overcast,190,2013-10-30 22:15:00
6:35 PM,39.4,29.3,67,30.18,10.0,South,3.5,-,N/A,,Overcast,190,2013-10-30 22:35:00
6:55 PM,38.3,30.0,72,30.19,10.0,SSW,4.6,-,N/A,,Overcast,200,2013-10-30 22:55:00
7:15 PM,39.0,29.8,70,30.19,10.0,Calm,Calm,-,N/A,,Overcast,0,2013-10-30 23:15:00
8:55 PM,36.0,29.5,77,30.19,10.0,Calm,Calm,-,N/A,,Overcast,0,2013-10-31 00:55:00
9:15 PM,35.8,29.3,77,30.19,10.0,South,3.5,-,N/A,,Mostly Cloudy,190,2013-10-31 01:15:00
9:35 PM,37.6,30.0,74,30.19,10.0,South,3.5,-,N/A,,Overcast,190,2013-10-31 01:35:00
9:55 PM,36.9,29.8,76,30.19,10.0,Calm,Calm,-,N/A,,Overcast,0,2013-10-31 01:55:00
10:15 PM,36.1,30.0,78,30.19,10.0,Calm,Calm,-,N/A,,Overcast,0,2013-10-31 02:15:00
10:35 PM,34.3,28.8,80,30.19,10.0,Calm,Calm,-,N/A,,Overcast,0,2013-10-31 02:35:00
10:55 PM,34.7,29.7,82,30.20,10.0,Calm,Calm,-,N/A,,Overcast,0,2013-10-31 02:55:00
11:15 PM,35.6,29.8,80,30.20,10.0,Calm,Calm,-,N/A,,Overcast,0,2013-10-31 03:15:00
11:35 PM,34.3,30.0,84,30.20,10.0,Calm,Calm,-,N/A,,Overcast,0,2013-10-31 03:35:00
11:55 PM,34.7,30.0,83,30.20,10.0,Calm,Calm,-,N/A,,Overcast,0,2013-10-31 03:55:00